| time (UTC) | temp F | wind direction | speed MPH | gust MPH | rain 1hr in | rain 24hr in | rain mn in | humidity % | barometer mb |
| 20260510142333 | 58 | 180 | 2.0 | 3.0 | 0.00 | 0.00 | 0.00 | 65 | 1026.6 |
| 20260510140834 | 57 | 180 | 3.0 | 6.0 | 0.00 | 0.00 | 0.00 | 69 | 1026.6 |
| 20260510135333 | 55 | 180 | 2.0 | 3.0 | 0.00 | 0.00 | 0.00 | 73 | 1026.7 |
| 20260510133832 | 52 | 225 | 0.0 | 1.0 | 0.00 | 0.00 | 0.00 | 75 | 1026.5 |
| 20260510132334 | 53 | 225 | 0.0 | 0.0 | 0.00 | 0.00 | 0.00 | 74 | 1026.5 |
| 20260510130833 | 53 | 225 | 0.0 | 0.0 | 0.00 | 0.00 | 0.00 | 74 | 1026.6 |
| 20260510125333 | 54 | 225 | 0.0 | 0.0 | 0.00 | 0.00 | 0.00 | 74 | 1026.5 |
| 20260510123834 | 54 | 225 | 0.0 | 0.0 | 0.00 | 0.00 | 0.00 | 73 | 1026.7 |
| 20260510122333 | 54 | 225 | 0.0 | 0.0 | 0.00 | 0.00 | 0.00 | 73 | 1026.8 |
| 20260510120834 | 54 | 225 | 0.0 | 0.0 | 0.00 | 0.00 | 0.00 | 73 | 1027.0 |
| 20260510115334 | 55 | 225 | 0.0 | 0.0 | 0.00 | 0.00 | 0.00 | 70 | 1026.7 |
| 20260510113834 | 55 | 225 | 0.0 | 0.0 | 0.00 | 0.00 | 0.00 | 69 | 1026.8 |
| 20260510112332 | 56 | 225 | 0.0 | 0.0 | 0.00 | 0.00 | 0.00 | 68 | 1026.8 |
| 20260510110833 | 56 | 225 | 0.0 | 0.0 | 0.00 | 0.00 | 0.00 | 68 | 1026.9 |
| 20260510105333 | 56 | 225 | 0.0 | 0.0 | 0.00 | 0.00 | 0.00 | 66 | 1026.9 |
| 20260510103833 | 57 | 225 | 0.0 | 0.0 | 0.00 | 0.00 | 0.00 | 66 | 1027.0 |
| 20260510102332 | 58 | 225 | 0.0 | 0.0 | 0.00 | 0.00 | 0.00 | 65 | 1027.0 |
| 20260510100833 | 58 | 225 | 0.0 | 0.0 | 0.00 | 0.00 | 0.00 | 64 | 1026.9 |
| 20260510095333 | 59 | 225 | 0.0 | 0.0 | 0.00 | 0.00 | 0.00 | 64 | 1026.9 |
| 20260510093834 | 59 | 225 | 0.0 | 0.0 | 0.00 | 0.00 | 0.00 | 63 | 1026.8 |
| 20260510092333 | 60 | 225 | 0.0 | 0.0 | 0.00 | 0.00 | 0.00 | 62 | 1026.7 |
| 20260510090833 | 61 | 225 | 0.0 | 0.0 | 0.00 | 0.00 | 0.00 | 61 | 1026.5 |
| 20260510085333 | 61 | 225 | 0.0 | 0.0 | 0.00 | 0.00 | 0.00 | 60 | 1026.3 |
| 20260510083834 | 63 | 225 | 0.0 | 0.0 | 0.00 | 0.00 | 0.00 | 60 | 1026.0 |
| 20260510082333 | 64 | 225 | 0.0 | 0.0 | 0.00 | 0.00 | 0.00 | 53 | 1025.8 |
| 20260510080834 | 65 | 225 | 0.0 | 0.0 | 0.00 | 0.00 | 0.00 | 52 | 1025.8 |
| 20260510075333 | 66 | 225 | 0.0 | 0.0 | 0.00 | 0.00 | 0.00 | 50 | 1025.6 |
| 20260510073833 | 67 | 225 | 0.0 | 1.0 | 0.00 | 0.00 | 0.00 | 49 | 1025.5 |
| 20260510072333 | 69 | 225 | 0.0 | 0.0 | 0.00 | 0.00 | 0.00 | 46 | 1025.5 |
| 20260510070834 | 69 | 225 | 0.0 | 1.0 | 0.00 | 0.00 | 0.00 | 45 | 1025.2 |
| 20260510065333 | 70 | 225 | 1.0 | 3.0 | 0.00 | 0.00 | 0.00 | 44 | 1025.1 |
| 20260510063833 | 71 | 225 | 2.0 | 3.0 | 0.00 | 0.00 | 0.00 | 42 | 1024.9 |
| 20260510062333 | 72 | 225 | 1.0 | 2.0 | 0.00 | 0.00 | 0.00 | 41 | 1024.9 |
| 20260510060834 | 73 | 225 | 1.0 | 1.0 | 0.00 | 0.00 | 0.00 | 37 | 1024.7 |
| 20260510055333 | 73 | 225 | 0.0 | 3.0 | 0.00 | 0.00 | 0.00 | 36 | 1024.9 |
| 20260510053832 | 73 | 225 | 1.0 | 2.0 | 0.00 | 0.00 | 0.00 | 35 | 1024.5 |
| 20260510052334 | 73 | 225 | 1.0 | 3.0 | 0.00 | 0.00 | 0.00 | 35 | 1024.6 |
| 20260510050833 | 74 | 225 | 2.0 | 3.0 | 0.00 | 0.00 | 0.00 | 35 | 1024.4 |
| 20260510045332 | 74 | 45 | 1.0 | 2.0 | 0.00 | 0.00 | 0.00 | 34 | 1024.4 |
| 20260510043834 | 74 | 180 | 0.0 | 0.0 | 0.00 | 0.00 | 0.00 | 34 | 1024.4 |
| 20260510042334 | 74 | 180 | 0.0 | 1.0 | 0.00 | 0.00 | 0.00 | 34 | 1024.2 |
| 20260510040834 | 74 | 180 | 0.0 | 1.0 | 0.00 | 0.00 | 0.00 | 33 | 1024.2 |
| 20260510035332 | 75 | 180 | 1.0 | 3.0 | 0.00 | 0.00 | 0.00 | 34 | 1024.3 |
| 20260510033834 | 74 | 180 | 1.0 | 1.0 | 0.00 | 0.00 | 0.00 | 33 | 1024.2 |
| 20260510032334 | 74 | 180 | 1.0 | 2.0 | 0.00 | 0.00 | 0.00 | 33 | 1024.1 |
| 20260510030833 | 74 | 225 | 1.0 | 5.0 | 0.00 | 0.00 | 0.00 | 34 | 1024.5 |
| 20260510025333 | 74 | 225 | 0.0 | 1.0 | 0.00 | 0.00 | 0.00 | 33 | 1024.6 |
| 20260510023833 | 74 | 225 | 1.0 | 2.0 | 0.00 | 0.00 | 0.00 | 34 | 1024.8 |
| 20260510022333 | 74 | 270 | 2.0 | 5.0 | 0.00 | 0.00 | 0.00 | 34 | 1024.9 |
| 20260510020833 | 75 | 270 | 3.0 | 6.0 | 0.00 | 0.00 | 0.00 | 34 | 1025.2 |
| 20260510015334 | 75 | 0 | 2.0 | 3.0 | 0.00 | 0.00 | 0.00 | 34 | 1025.3 |
| 20260510013833 | 75 | 338 | 1.0 | 3.0 | 0.00 | 0.00 | 0.00 | 37 | 1025.5 |
| 20260510012332 | 73 | 338 | 2.0 | 3.0 | 0.00 | 0.00 | 0.00 | 37 | 1025.6 |
| 20260510010833 | 73 | 315 | 1.0 | 3.0 | 0.00 | 0.00 | 0.00 | 39 | 1025.6 |
| 20260510005333 | 72 | 290 | 2.0 | 5.0 | 0.00 | 0.00 | 0.00 | 41 | 1025.9 |
| 20260510003833 | 72 | 315 | 2.0 | 3.0 | 0.00 | 0.00 | 0.00 | 40 | 1025.7 |
| 20260510002333 | 71 | 315 | 0.0 | 3.0 | 0.00 | 0.00 | 0.00 | 42 | 1025.7 |
| 20260510000834 | 71 | 270 | 2.0 | 3.0 | 0.00 | 0.00 | 0.00 | 44 | 1025.6 |
| 20260509235333 | 71 | 270 | 2.0 | 3.0 | 0.00 | 0.00 | 0.00 | 44 | 1025.6 |
| 20260509233833 | 70 | 270 | 0.0 | 2.0 | 0.00 | 0.00 | 0.00 | 44 | 1025.5 |
| 20260509232333 | 69 | 270 | 1.0 | 2.0 | 0.00 | 0.00 | 0.00 | 47 | 1025.3 |
| 20260509230834 | 67 | 270 | 1.0 | 2.0 | 0.00 | 0.00 | 0.00 | 50 | 1025.1 |
| 20260509225334 | 66 | 270 | 1.0 | 2.0 | 0.00 | 0.00 | 0.00 | 50 | 1025.2 |
| 20260509223832 | 66 | 270 | 1.0 | 1.0 | 0.00 | 0.00 | 0.00 | 54 | 1025.1 |
| 20260509222334 | 63 | 270 | 0.0 | 0.0 | 0.00 | 0.00 | 0.00 | 64 | 1024.8 |
| 20260509220834 | 58 | 270 | 0.0 | 0.0 | 0.00 | 0.00 | 0.00 | 70 | 1024.7 |
| 20260509215333 | 54 | 270 | 0.0 | 0.0 | 0.00 | 0.00 | 0.00 | 81 | 1024.5 |
| 20260509213833 | 49 | 270 | 0.0 | 1.0 | 0.00 | 0.00 | 0.00 | 88 | 1024.2 |
| 20260509212334 | 45 | 270 | 0.0 | 0.0 | 0.00 | 0.00 | 0.00 | 90 | 1024.2 |
| 20260509210834 | 44 | 270 | 0.0 | 0.0 | 0.00 | 0.00 | 0.00 | 90 | 1024.0 |
| 20260509205333 | 44 | 270 | 0.0 | 0.0 | 0.00 | 0.00 | 0.00 | 90 | 1023.8 |
| 20260509203833 | 44 | 270 | 0.0 | 1.0 | 0.00 | 0.00 | 0.00 | 89 | 1023.8 |
| 20260509202333 | 44 | 270 | 0.0 | 0.0 | 0.00 | 0.00 | 0.00 | 89 | 1023.8 |
| 20260509200834 | 44 | 270 | 0.0 | 0.0 | 0.00 | 0.00 | 0.00 | 88 | 1023.6 |
| 20260509195334 | 44 | 270 | 0.0 | 0.0 | 0.00 | 0.00 | 0.00 | 87 | 1023.4 |
| 20260509193834 | 44 | 270 | 0.0 | 0.0 | 0.00 | 0.00 | 0.00 | 87 | 1023.2 |
| 20260509192333 | 44 | 270 | 0.0 | 0.0 | 0.00 | 0.00 | 0.00 | 87 | 1023.1 |
| 20260509190834 | 44 | 270 | 0.0 | 0.0 | 0.00 | 0.00 | 0.00 | 86 | 1023.0 |
| 20260509185333 | 45 | 270 | 0.0 | 0.0 | 0.00 | 0.00 | 0.00 | 86 | 1022.8 |
| 20260509183834 | 45 | 270 | 0.0 | 0.0 | 0.00 | 0.00 | 0.00 | 86 | 1022.8 |
| 20260509182333 | 45 | 270 | 0.0 | 0.0 | 0.00 | 0.00 | 0.00 | 87 | 1022.5 |
| 20260509180833 | 45 | 270 | 0.0 | 0.0 | 0.00 | 0.00 | 0.00 | 87 | 1022.6 |
| 20260509175333 | 46 | 270 | 0.0 | 0.0 | 0.00 | 0.00 | 0.00 | 81 | 1022.5 |
| 20260509173833 | 46 | 270 | 0.0 | 0.0 | 0.00 | 0.00 | 0.00 | 81 | 1022.5 |
| 20260509172332 | 46 | 270 | 0.0 | 0.0 | 0.00 | 0.00 | 0.00 | 81 | 1022.4 |
| 20260509170833 | 46 | 270 | 0.0 | 0.0 | 0.00 | 0.00 | 0.00 | 81 | 1022.6 |
| 20260509165333 | 46 | 270 | 0.0 | 0.0 | 0.00 | 0.00 | 0.00 | 81 | 1022.5 |
| 20260509163833 | 46 | 270 | 0.0 | 0.0 | 0.00 | 0.00 | 0.00 | 81 | 1022.5 |
| 20260509162332 | 46 | 270 | 0.0 | 0.0 | 0.00 | 0.00 | 0.00 | 80 | 1022.7 |
| 20260509160834 | 46 | 270 | 0.0 | 0.0 | 0.00 | 0.00 | 0.00 | 80 | 1022.7 |
| 20260509155333 | 47 | 270 | 0.0 | 0.0 | 0.00 | 0.00 | 0.00 | 80 | 1022.9 |
| 20260509153833 | 47 | 270 | 0.0 | 0.0 | 0.00 | 0.00 | 0.00 | 80 | 1022.7 |
| 20260509152334 | 47 | 270 | 0.0 | 0.0 | 0.00 | 0.00 | 0.00 | 79 | 1022.9 |
| 20260509150833 | 47 | 270 | 0.0 | 0.0 | 0.00 | 0.00 | 0.00 | 78 | 1022.9 |
| 20260509145334 | 47 | 270 | 0.0 | 0.0 | 0.00 | 0.00 | 0.00 | 78 | 1023.3 |
| 20260509143832 | 47 | 270 | 0.0 | 0.0 | 0.00 | 0.00 | 0.00 | 78 | 1023.1 |